Tracking 35331 objects as of 15-Sep-2026
HD Live streaming from Space Station
objects crossing your sky now

SL-6 DEB


SL-6 DEB is no longer on orbit


NORAD ID: 19457
Int'l Code: 1988-044G
Launch date: May 26, 1988
Source: Commonwealth of Independent States (former USSR) (CIS)
Launch site: PLESETSK MISSILE AND SPACE COMPLEX (PKMTR)
Decay date: 1988-10-09

Note: This is SATELLITE DEBRIS
Your satellite tracking list
Your tracking list is empty




NASA's NSSDC Master Catalog

Two Line Element Set (TLE):
1 19457U 88044  G 88278.47792469 -.13455613 +37300-4 -57615-2 0  9994
2 19457 062.7966 295.3802 0050203 134.2539 227.4784 16.18916371013281
Source of the keplerian elements: AFSPC